星链-6087 (STARLINK-6087 )

导读

STARLINK-6087是美国太空探索技术公司(SpaceX)星链(Starlink)星座中的卫星,于2023年5月31日发射入轨,属于星链互联网卫星组网的组成部分。星链旨在构建全球卫星互联网星座,提供覆盖全球的高速互联网接入服务,该卫星承担低轨通信任务,服务全球偏远地区、移动场景等网络需求,推动全球网络覆盖完善。

Basic Information
目录编号:
56801
目录名称:
STARLINK-6087
国际标识:
2023-078AL
轨道中心:
EARTH
卫星名称:
星链-6087
卫星全名:
星链-6087 (STARLINK-6087 )
卫星状态:
在轨 (已飞行1200 天)
发射日期:
2023-05-31 UTC
国别 :
美国 (US)
星等 :
--
This satellite is enrolled in the Space Conjunction Data Service (SCDS) and the current flight risk assessment level is: No High Risk
Orbit Information
数据来源 国际轨道数据 AOE轨道数据
星历时间 2026-09-12T11:08:46+0800
14小时前
查看轨道信息
2026-09-07T01:00:00+0800
6天前
查看轨道信息
半长轴 6950.174km 6950.207km
偏心率 0.0003623 0.000411
轨道倾角 69.999° 69.999°
近地点辐角 270.605° 269.302°
升交点赤经 214.247° 227.919°
平近点角 89.469° 8.754°
近地点 569.518km 569.213km
远地点 574.556km 574.927km
周期 96.107分钟 96.107分钟
每日圈数 14.983364 14.983255
Detailed Information
固有亮度:
5
最大亮度:
2.5
卫星平台:
Starlink v1.5
覆盖范围:
全球
运营商:
太空探索技术公司
运营商所在国:
美国
制造商(研发单位):
太空探索技术公司
制造商所在国:
美国
使用方式:
暂无
Satellite Introduction
星链(Starlink)计划是由太空探索技术公司(SpaceX)提出的一个巨型低轨卫星互联网星座项目,计划在2019年至2024年间在太空搭建由约1.2万颗卫星组成的“星链”网络,其中1584颗将部署在地球上空550千米处的近地轨道,并从2020年开始工作。该卫星仍在工作。
2D Orbit Map
3D Orbit Map
Orbit Altitude Analysis Chart
Orbit Inclination Analysis Chart
Orbit Comprehensive Analysis Chart
View Comprehensive Chart
Miss Distance Evolution Trend with All Objects
Collision Probability Evolution Trend with All Objects